Location: ????????
(55.6333°N, 37.7000°E)
Time: 15:02:54
(UTC+00:00)

USA 229 DEB - Pass Details

Date: 19 May 2025
Orbit: 872 x 1339 km, 63.4° (Epoch: 17 June)

Event Time Altitude Azimuth Distance (km) Brightness Sun altitude
Exits shadow 23:20:43 - 252° (WSW) 3,426 5.9 -10.5°
Reaches altitude 10° 23:22:41 10° 255° (WSW) 2,720 5.4 -10.4°
Maximum altitude 23:29:01 60° 335° (NNW) 1,201 4.2 -10.0°
Drops below altitude 10° 23:36:10 10° 55° (NE) 3,056 7.3 -9.5°
Sets 23:39:06 0° 60° (ENE) 4,090 8.0 -9.3°
